When you browse on this site, cookies collect data to enhance your experience and personalize the content and advertising you see.
Visit our Privacy Policy to learn more. By continuing to use the site, you agree to this use of cookies and data.
  • In Czech Republic
  • List of Countries
  • For 7 days
  • Water Temperature
  • Satellite Maps
  • Weather Map
  • Weather Widgets
  • user-avatar
    Login

    Hourly Weather Ischgl

    Today, 17 December, Monday

    Time Temperature Precipitation Wind Pressure Humidity
    00:00 -10°C° 0 mm 1 mps 567 mmHg 90%
    01:00 -11°C° 0 mm 1 mps 567 mmHg 89%
    02:00 -11°C° 0 mm 1 mps 567 mmHg 89%
    03:00 -11°C° 0 mm 1 mps 567 mmHg 89%
    04:00 -11°C° 0 mm 1 mps 567 mmHg 88%
    05:00 -12°C° 0 mm 1 mps 567 mmHg 89%
    06:00 -12°C° 0 mm 1 mps 567 mmHg 90%
    07:00 -12°C° 0 mm 1 mps 568 mmHg 91%
    08:00 -11°C° 0 mm 1 mps 569 mmHg 90%
    09:00 -10°C° 0 mm 1 mps 570 mmHg 89%
    10:00 -9°C° 0 mm 1 mps 571 mmHg 89%
    11:00 -9°C° 0 mm 2 mps 571 mmHg 88%
    12:00 -8°C° 0 mm 2 mps 572 mmHg 87%
    13:00 -7°C° 0 mm 2 mps 572 mmHg 86%
    14:00 -7°C° 0 mm 2 mps 573 mmHg 88%
    15:00 -8°C° 0 mm 2 mps 573 mmHg 90%
    16:00 -9°C° 0 mm 2 mps 573 mmHg 92%
    17:00 -9°C° 0.1 mm 2 mps 573 mmHg 93%
    18:00 -10°C° 0.1 mm 2 mps 573 mmHg 93%
    19:00 -10°C° 0.1 mm 2 mps 574 mmHg 94%
    20:00 -12°C° 0.1 mm 2 mps 574 mmHg 94%
    21:00 -12°C° 0.1 mm 2 mps 574 mmHg 94%
    22:00 -12°C° 0.1 mm 2 mps 574 mmHg 94%
    23:00 -13°C° 0 mm 2 mps 574 mmHg 93%

    Tomorrow, 18 December, Tuesday

    Time Temperature Precipitation Wind Pressure Humidity
    00:00 -14°C° 0 mm 2 mps 574 mmHg 92%
    01:00 -12°C° 0 mm 1 mps 573 mmHg 92%
    02:00 -15°C° 0 mm 2 mps 573 mmHg 87%
    03:00 -15°C° 0 mm 2 mps 573 mmHg 83%
    04:00 -15°C° 0 mm 2 mps 573 mmHg 78%
    05:00 -15°C° 0 mm 2 mps 573 mmHg 72%
    06:00 -15°C° 0 mm 2 mps 573 mmHg 65%
    07:00 -15°C° 0 mm 2 mps 573 mmHg 58%
    08:00 -14°C° 0 mm 2 mps 573 mmHg 58%
    09:00 -12°C° 0 mm 2 mps 574 mmHg 57%
    10:00 -10°C° 0 mm 2 mps 574 mmHg 57%
    11:00 -8°C° 0 mm 2 mps 575 mmHg 60%
    12:00 -7°C° 0 mm 2 mps 575 mmHg 63%
    13:00 -5°C° 0 mm 2 mps 575 mmHg 66%
    14:00 -7°C° 0 mm 2 mps 574 mmHg 67%
    15:00 -8°C° 0 mm 2 mps 573 mmHg 68%
    16:00 -9°C° 0 mm 2 mps 573 mmHg 69%
    17:00 -10°C° 0 mm 2 mps 572 mmHg 67%
    18:00 -13°C° 0 mm 3 mps 572 mmHg 65%
    19:00 -14°C° 0 mm 3 mps 571 mmHg 62%
    20:00 -13°C° 0 mm 3 mps 571 mmHg 60%
    21:00 -13°C° 0 mm 3 mps 571 mmHg 58%
    22:00 -13°C° 0 mm 3 mps 571 mmHg 56%
    23:00 -13°C° 0 mm 3 mps 571 mmHg 55%

    Day after tomorrow, 19 December, Wednesday

    Time Temperature Precipitation Wind Pressure Humidity
    00:00 -13°C° 0 mm 3 mps 571 mmHg 54%
    01:00 -13°C° 0 mm 3 mps 571 mmHg 53%
    02:00 -12°C° 0 mm 3 mps 571 mmHg 54%
    03:00 -10°C° 0 mm 2 mps 571 mmHg 54%
    04:00 -9°C° 0 mm 2 mps 571 mmHg 54%
    05:00 -9°C° 0 mm 2 mps 571 mmHg 55%
    06:00 -9°C° 0 mm 2 mps 571 mmHg 56%
    07:00 -9°C° 0 mm 2 mps 571 mmHg 58%
    08:00 -8°C° 0 mm 2 mps 571 mmHg 60%
    09:00 -7°C° 0 mm 2 mps 572 mmHg 63%
    10:00 -7°C° 0 mm 2 mps 572 mmHg 66%
    11:00 -6°C° 0 mm 2 mps 572 mmHg 69%
    12:00 -5°C° 0 mm 2 mps 572 mmHg 72%
    13:00 -4°C° 0 mm 2 mps 572 mmHg 75%
    14:00 -5°C° 0 mm 2 mps 571 mmHg 77%
    15:00 -6°C° 0 mm 2 mps 571 mmHg 80%
    16:00 -7°C° 0 mm 2 mps 570 mmHg 82%
    17:00 -8°C° 0.1 mm 2 mps 570 mmHg 85%
    18:00 -8°C° 0.1 mm 2 mps 570 mmHg 87%
    19:00 -8°C° 0.1 mm 2 mps 570 mmHg 89%
    20:00 -8°C° 0.4 mm 2 mps 570 mmHg 90%
    21:00 -7°C° 0.4 mm 1 mps 570 mmHg 91%
    22:00 -7°C° 0.4 mm 1 mps 570 mmHg 92%
    23:00 -7°C° 0.9 mm 1 mps 570 mmHg 93%

    20 December, Thursday

    Time Temperature Precipitation Wind Pressure Humidity
    00:00 -7°C° 0.9 mm 1 mps 570 mmHg 95%
    01:00 -7°C° 0.9 mm 1 mps 570 mmHg 96%
    02:00 -7°C° 1.1 mm 1 mps 570 mmHg 96%
    03:00 -7°C° 1.1 mm 1 mps 569 mmHg 96%
    04:00 -7°C° 1.1 mm 1 mps 569 mmHg 96%
    05:00 -7°C° 0.9 mm 1 mps 569 mmHg 96%
    06:00 -8°C° 0.9 mm 2 mps 570 mmHg 96%
    07:00 -8°C° 0.9 mm 2 mps 570 mmHg 96%
    08:00 -8°C° 0.4 mm 2 mps 570 mmHg 96%
    09:00 -8°C° 0.4 mm 2 mps 570 mmHg 95%
    10:00 -8°C° 0.4 mm 2 mps 570 mmHg 95%
    11:00 -8°C° 0.3 mm 2 mps 570 mmHg 93%
    12:00 -8°C° 0.3 mm 2 mps 570 mmHg 92%
    13:00 -7°C° 0.3 mm 2 mps 570 mmHg 91%
    14:00 -8°C° 0.2 mm 2 mps 570 mmHg 91%
    15:00 -8°C° 0.2 mm 2 mps 570 mmHg 92%
    16:00 -9°C° 0.2 mm 2 mps 570 mmHg 93%
    17:00 -10°C° 0 mm 2 mps 570 mmHg 92%
    18:00 -12°C° 0 mm 2 mps 569 mmHg 92%
    19:00 -13°C° 0 mm 2 mps 569 mmHg 91%
    20:00 -13°C° 0 mm 2 mps 569 mmHg 88%
    21:00 -14°C° 0 mm 2 mps 570 mmHg 85%
    22:00 -14°C° 0 mm 2 mps 570 mmHg 81%
    23:00 -14°C° 0 mm 2 mps 570 mmHg 81%

    21 December, Friday

    Time Temperature Precipitation Wind Pressure Humidity
    00:00 -14°C° 0 mm 2 mps 570 mmHg 81%
    01:00 -14°C° 0 mm 2 mps 570 mmHg 80%
    02:00 -14°C° 0 mm 2 mps 570 mmHg 80%
    03:00 -14°C° 0 mm 2 mps 570 mmHg 80%
    04:00 -14°C° 0 mm 2 mps 570 mmHg 80%
    05:00 -14°C° 0 mm 2 mps 570 mmHg 78%
    06:00 -14°C° 0 mm 2 mps 571 mmHg 77%
    07:00 -14°C° 0 mm 2 mps 571 mmHg 76%
    08:00 -12°C° 0 mm 2 mps 571 mmHg 75%
    09:00 -10°C° 0 mm 2 mps 572 mmHg 75%
    10:00 -9°C° 0 mm 2 mps 573 mmHg 75%
    11:00 -8°C° 0 mm 2 mps 573 mmHg 73%
    12:00 -7°C° 0 mm 2 mps 573 mmHg 71%
    13:00 -5°C° 0 mm 2 mps 573 mmHg 69%
    14:00 -6°C° 0 mm 2 mps 573 mmHg 72%
    15:00 -7°C° 0 mm 2 mps 572 mmHg 74%
    16:00 -7°C° 0 mm 2 mps 572 mmHg 76%
    17:00 -7°C° 0.1 mm 2 mps 572 mmHg 77%
    18:00 -7°C° 0.1 mm 2 mps 572 mmHg 78%
    19:00 -8°C° 0.1 mm 3 mps 572 mmHg 79%
    20:00 -8°C° 0.3 mm 3 mps 572 mmHg 80%
    21:00 -8°C° 0.3 mm 3 mps 572 mmHg 82%
    22:00 -8°C° 0.3 mm 3 mps 572 mmHg 83%
    23:00 -7°C° 0.6 mm 2 mps 572 mmHg 84%

    22 December, Saturday

    Time Temperature Precipitation Wind Pressure Humidity
    00:00 -6°C° 0.6 mm 2 mps 573 mmHg 84%
    01:00 -6°C° 0.6 mm 2 mps 573 mmHg 85%
    02:00 -6°C° 0.1 mm 2 mps 573 mmHg 86%
    03:00 -6°C° 0.1 mm 2 mps 573 mmHg 88%
    04:00 -6°C° 0.1 mm 2 mps 573 mmHg 89%
    05:00 -6°C° 0 mm 2 mps 573 mmHg 90%
    06:00 -6°C° 0 mm 2 mps 573 mmHg 92%
    07:00 -6°C° 0 mm 2 mps 574 mmHg 93%
    08:00 -5°C° 0 mm 2 mps 574 mmHg 93%
    09:00 -5°C° 0 mm 2 mps 575 mmHg 93%
    10:00 -5°C° 0 mm 2 mps 575 mmHg 93%
    11:00 -4°C° 0 mm 2 mps 575 mmHg 93%
    12:00 -4°C° 0 mm 2 mps 576 mmHg 93%
    13:00 -3°C° 0 mm 2 mps 576 mmHg 92%
    14:00 -4°C° 0 mm 2 mps 575 mmHg 89%
    15:00 -4°C° 0 mm 2 mps 575 mmHg 86%
    16:00 -5°C° 0 mm 2 mps 575 mmHg 83%
    17:00 -5°C° 0.2 mm 2 mps 575 mmHg 83%
    18:00 -6°C° 0.2 mm 2 mps 575 mmHg 82%
    19:00 -6°C° 0.2 mm 2 mps 576 mmHg 82%
    20:00 -5°C° 0.8 mm 2 mps 576 mmHg 85%
    21:00 -5°C° 0.8 mm 2 mps 576 mmHg 88%
    22:00 -5°C° 0.8 mm 2 mps 576 mmHg 91%
    23:00 -4°C° 0.7 mm 2 mps 577 mmHg 92%
    Show more